Starlink 31726

operational
NORAD ID: 59739 Int'l Des: 2024-090 Owner: SPXS Country: US Constellation: starlink
LEOCIRCULAR

About Starlink 31726

Description loading...

Live Position

Loading 3D Globe...

Upcoming Passes

Altitude History

Altitude vs Time

uPlot chart will show altitude changes over time

Two-Line Element Set

1 59739U 24090K 25259.23822087 -.00000798 00000-0 -19492-4 0 9998
2 59739 43.0039 88.3985 0001202 285.2149 74.8569 15.27574807 76762
Epoch: Sep 16, 2025 • Age: 7 hours

Current Status

Altitude 495.6 km
Velocity 7.62 km/s
Sub-Earth Point -42.91°S, 156.14°E
Launch Date May 13, 2024
Age 1.3 years
Type internet

Technical Details

Classification Payload
Mass 730.00 kg
Dry Mass 700.00 kg
Total Mass 730.00 kg
Length 0.30 m
Diameter 4.10 m
Span 29.00 m
Shape Box + pan
Manufacturer SPXS
Bus Type Starlink V2M
Phase Status In Orbit
Owner/State SPXS/US

Large Constellations

Loading constellations...